Location: L�Ave Maria
(50.7161°N, 1.5911°E)
Time: 00:34:31
(UTC+00:00)

Nimbus 7 Rocket - Pass Details

Date: 10 July 2020
Orbit: 922 x 965 km, 99.4° (Epoch: 03 August)

Event Time Altitude Azimuth Distance (km) Brightness Sun altitude
Rises 23:28:14 0° 15° (NNE) 3,612 8.8 -16.9°
Reaches altitude 10° 23:30:41 10° 15° (NNE) 2,657 7.9 -16.9°
Maximum altitude 23:36:38 86° 289° (WNW) 939 4.4 -17.0°
Enters shadow 23:40:24 24° 201° (SSW) 1,831 5.4 -17.1°
